Weather in Sayansk

Russia / Krasnoyarsk Krai     54°09′02″N   91°53′01″E
temp.,
°C
wind,
m/s
gust,
m/s
humid.,
%
clouds,
%
prec.,
mm/h
press.,
hPa
HPBL,
m
14 august, sun
sun1401:00+16ssw2296100 1.8 100670
04:00+14s229797 0.7 100635
07:00+16ssw248799 0.9 1007137
10:00+15s249391 2.6 1007123
13:00+21w476042 4.8 10061397
16:00+20sw3858100 0.1 1006669
19:00+18sw51061100 0.3 1007450
22:00+15sw510770 0.6 1007217
15 august, mon
mon1501:00+13ssw497917 0.6 1007176
04:00+11ssw339142 0.5 100631
07:00+12sw279158 1.8 1006230
10:00+16w813574 0.9 10071721
13:00+18w61140100 0.9 10072454
16:00+19wsw574297 0.0 10072147
19:00+16w37515 0.1 1007254
22:00+12wnw49625 0.0 1009200
16 august, tue
tue1601:00+9w22755 0.0 101010
04:00+8sw227547 0.0 100926
07:00+10wnw5116574 0.0 1010838
10:00+13w794861 0.0 10101491
13:00+14wnw694669 0.0 10101749
16:00+15nw684647 0.0 10101737
19:00+12n565821 0.0 1011639
22:00+7n22817 0.0 101320
17 august, wed
wed1701:00+8se117495 0.0 101423
04:00+7e117988 0.0 101314
07:00+6ne11815 0.0 101371
10:00+12nw015919 0.0 1012814
13:00+15wnw454148 0.0 10102037
16:00+16nw3439100 0.0 10091876
19:00+14n345230 0.0 1009122
22:00+9ne2262100 0.0 101018
18 august, thu
thu1801:00+8nne1165100 0.0 101010
04:00+8e1166100 0.0 100910
07:00+10sse1261100 0.0 1010107
10:00+9wsw4582100 0.4 1011540
13:00+10nnw257398 2.1 1012644
16:00+13w356143 1.3 10121219
19:00+11wnw596659 2.1 1012387
22:00+7w118059 0.1 101410